User: anonymous   Login
Location: Unspecified
(0.0000°N, 0.0000°E)
Time: 18:20:18
(UTC+00:00)
Language:

STARLINK-3619 - Orbit

View from above orbital plane
View from above orbital plane
View from above satellite
View from above satellite

Ground track
Ground track

The orbit is defined by the following mean orbital elements,

1 51787U          26144.91376315 +.00000000 +00000-0 +69686-4 0 00002
2 51787  53.2131   6.9360 0001462  56.6074 303.5058 15.08844499    06
Epoch (UTC): 24 May 2026 21:55:49
Eccentricity: 0.0001462
inclination: 53.2131°
perigee height: 539 km
apogee height: 541 km
right ascension of ascending node: 6.9360°
argument of perigee: 56.6074°
revolutions per day: 15.08844499
mean anomaly at epoch: 303.5058°

The dashed part of the orbit path shows where the satellite is in the earth's shadow,  

DLR